Погода в Раздольном

Россия / Амурская область     50°01′20″N   127°50′03″E
темп.,
°C
ветер,
м/с
пор.,
м/с
влажн.,
%
обл.,
%
осадки,
мм/ч
давл.,
гПа
погр.,
м
15 мая, сб
сб1500:00+9с4889100 2.1 1001359
03:00+7сз369199 2.1 1000152
06:00+7зсз37881 0.0 1000264
09:00+12зсз586782 0.1 10001244
12:00+13сз9126014 0.4 10001695
15:00+14зсз8125180 0.4 10002035
18:00+15зсз71351100 0.1 10011741
21:00+11зсз5116018 0.1 1003282
16 мая, вс
вс1600:00+9з411655 0.0 1004233
03:00+8з412660 0.0 1004239
06:00+8з411680 0.0 1004251
09:00+15зсз47420 0.0 1003935
12:00+20юз37295 0.0 10002488
15:00+22юз5728100 0.0 9963266
18:00+14з5963100 0.2 999617
21:00+11ссз23755 1.0 100136
17 мая, пн
пн1700:00+10з34751 0.0 100147
03:00+9юз34720 0.0 100152
06:00+9ю346982 0.0 100175
09:00+17зсз46405 0.0 1000645
12:00+21сз5629100 0.0 10002429
15:00+23зсз472876 0.0 9992930
18:00+21ссз353654 0.0 999163
21:00+15вюв475420 0.0 99999
18 мая, вт
вт1800:00+13ююв47655 0.0 997114
03:00+13ю226092 0.0 99539
06:00+14ю4764100 0.0 994121
09:00+20з68396 0.0 994987
12:00+23зсз6836100 0.0 9952157
15:00+21зсз783098 0.0 9962048
18:00+19зсз61032100 0.0 998503
21:00+14ссз5124061 0.0 1001313
19 мая, ср
ср1900:00+10с41043100 0.0 1005334
03:00+7с24550 0.0 100683
06:00+8с12563 0.0 100893
09:00+12ююв11406 0.0 1009697
12:00+17ю34325 0.0 10071431
15:00+20ю682629 0.0 10042508
18:00+20ю4732100 0.0 1002509
21:00+16юв61139100 0.0 1001243